Погода в Порт-Морсби

Папуа-Новая Гвинея     9°26′12″S   147°11′36″E
темп.,
°C
ветер,
м/с
пор.,
м/с
влажн.,
%
обл.,
%
осадки,
мм/ч
давл.,
гПа
погр.,
м
5 марта, пт
пт501:00+25ссз51083100 0.1 1008508
04:00+25ссз51183100 0.1 1007604
07:00+24ссз5981100 0.3 1009495
10:00+28сз71177100 2.6 10091102
13:00+30зсз8106398 1.1 10071291
16:00+29зсз7106999 1.4 10061026
19:00+26зсз468261 1.1 1008407
22:00+26ссз358558 2.0 1010313
6 марта, сб
сб601:00+25с238597 0.6 1008152
04:00+25с238498 0.8 1008140
07:00+24с3486100 1.2 1009179
10:00+25сз5890100 3.6 1011532
13:00+25с4889100 2.2 1008453
16:00+28сз5776100 2.8 1007909
19:00+26ссз3584100 1.4 1009295
22:00+25с2483100 2.1 1011241
7 марта, вс
вс701:00+24с3383100 0.3 1009127
04:00+24с348287 0.4 1009169
07:00+24с348190 0.0 1010173
10:00+28сз466691 0.0 1011715
13:00+29зсз5667100 0.2 1009885
16:00+28сз4574100 0.8 1007720
19:00+26ссз2380100 0.1 1009256
22:00+25ссв1178100 0.1 1011126
8 марта, пн
пн801:00+24ссв1178100 0.0 101082
04:00+24св127996 0.0 100979
07:00+24св127798 0.0 101169
10:00+29зюз116399 0.0 1012409
13:00+29юз336143 0.0 1009608
16:00+29ююз236364 0.0 1008521
19:00+27юв2374100 0.0 1010345
22:00+26вюв2376100 0.0 1011253
9 марта, вт
вт901:00+25всв1278100 0.0 1009106
04:00+24ссв117981 0.0 100882
07:00+25св117886 0.0 101186
10:00+28зюз116683 0.0 1011488
13:00+29ююз336618 0.0 1009520
16:00+29ю236727 0.1 1007633
19:00+26юв3479100 0.3 1010383
22:00+26вюв2282100 0.4 1012191